owner,sensor,date,latitude,longitude,vertical_datum,direction_of_sea_water_velocity,sea_water_speed,upward_sea_water_velocity,qcFlag 
TABS,ioos:station:wmo:42049:1,2011-05-01T00:00:00Z,28.3507,-96.0058,2.0,236.0050404,12.00110828,-99999.0,'11111222,11111222,99999999' 
TABS,ioos:station:wmo:42049:1,2011-05-01T00:30:00Z,28.3507,-96.0058,2.0,230.9874664,15.997181,-99999.0,'11111222,11111222,99999999' 
TABS,ioos:station:wmo:42049:1,2011-05-01T01:00:00Z,28.3507,-96.0058,2.0,233.9922435,19.00015263,-99999.0,'11111222,11111222,99999999' 
TABS,ioos:station:wmo:42049:1,2011-05-01T01:30:00Z,28.3507,-96.0058,2.0,242.9861428,23.9982166,-99999.0,'11111222,11111222,99999999' 
TABS,ioos:station:wmo:42049:1,2011-05-01T02:00:00Z,28.3507,-96.0058,2.0,242.9861428,23.9982166,-99999.0,'11111222,11111222,99999999' 
TABS,ioos:station:wmo:42049:1,2011-05-01T02:30:00Z,28.3507,-96.0058,2.0,240.0033284,26.00289215,-99999.0,'11111222,11111222,99999999' 
TABS,ioos:station:wmo:42049:1,2011-05-01T03:00:00Z,28.3507,-96.0058,2.0,248.1789667,27.62961093,-99999.0,'11111222,11111222,99999999' 
TABS,ioos:station:wmo:42049:1,2011-05-01T03:30:00Z,28.3507,-96.0058,2.0,218.9982662,55.99864284,-99999.0,'11111222,11111222,99999999' 
TABS,ioos:station:wmo:42049:1,2011-05-01T04:00:00Z,28.3507,-96.0058,2.0,258.0071188,26.99926295,-99999.0,'11111222,11111222,99999999' 
TABS,ioos:station:wmo:42049:1,2011-05-01T04:30:00Z,28.3507,-96.0058,2.0,255.0036085,31.99978906,-99999.0,'11111222,11111222,99999999' 
TABS,ioos:station:wmo:42049:1,2011-05-01T05:00:00Z,28.3507,-96.0058,2.0,255.0033372,33.00403006,-99999.0,'11111222,11111222,99999999' 
TABS,ioos:station:wmo:42049:1,2011-05-01T05:30:00Z,28.3507,-96.0058,2.0,254.000976,33.99675426,-99999.0,'11111222,11111222,99999999' 
TABS,ioos:station:wmo:42049:1,2011-05-01T06:00:00Z,28.3507,-96.0058,2.0,255.0033372,33.00403006,-99999.0,'11111222,11111222,99999999' 
TABS,ioos:station:wmo:42049:1,2011-05-01T06:30:00Z,28.3507,-96.0058,2.0,256.9978358,36.00300543,-99999.0,'11111222,11111222,99999999' 
TABS,ioos:station:wmo:42049:1,2011-05-01T07:00:00Z,28.3507,-96.0058,2.0,258.0032759,36.99800265,-99999.0,'11111222,11111222,99999999' 
TABS,ioos:station:wmo:42049:1,2011-05-01T07:30:00Z,28.3507,-96.0058,2.0,260.9955733,36.99588761,-99999.0,'11111222,11111222,99999999' 
TABS,ioos:station:wmo:42049:1,2011-05-01T08:00:00Z,28.3507,-96.0058,2.0,263.9974416,35.00188138,-99999.0,'11111222,11111222,99999999' 
TABS,ioos:station:wmo:42049:1,2011-05-01T08:30:00Z,28.3507,-96.0058,2.0,261.0029806,36.00292349,-99999.0,'11111222,11111222,99999999' 
TABS,ioos:station:wmo:42049:1,2011-05-01T09:00:00Z,28.3507,-96.0058,2.0,224.0012,83.99582668,-99999.0,'11111222,11111222,99999999' 
TABS,ioos:station:wmo:42049:1,2011-05-01T09:30:00Z,28.3507,-96.0058,2.0,254.000976,33.99675426,-99999.0,'11111222,11111222,99999999' 
TABS,ioos:station:wmo:42049:1,2011-05-01T10:00:00Z,28.3507,-96.0058,2.0,249.0067748,35.0033427,-99999.0,'11111222,11111222,99999999' 
TABS,ioos:station:wmo:42049:1,2011-05-01T10:30:00Z,28.3507,-96.0058,2.0,248.0047856,33.00196358,-99999.0,'11111222,11111222,99999999' 
TABS,ioos:station:wmo:42049:1,2011-05-01T11:00:00Z,28.3507,-96.0058,2.0,242.005796,33.00120755,-99999.0,'11111222,11111222,99999999' 
TABS,ioos:station:wmo:42049:1,2011-05-01T11:30:00Z,28.3507,-96.0058,2.0,235.9917574,27.99892319,-99999.0,'11111222,11111222,99999999' 
TABS,ioos:station:wmo:42049:1,2011-05-01T12:00:00Z,28.3507,-96.0058,2.0,234.0045882,29.99749656,-99999.0,'11111222,11111222,99999999' 
TABS,ioos:station:wmo:42049:1,2011-05-01T12:30:00Z,28.3507,-96.0058,2.0,227.9969767,32.99631495,-99999.0,'11111222,11111222,99999999' 
TABS,ioos:station:wmo:42049:1,2011-05-01T13:00:00Z,28.3507,-96.0058,2.0,231.000966,33.00477844,-99999.0,'11111222,11111222,99999999' 
TABS,ioos:station:wmo:42049:1,2011-05-01T13:30:00Z,28.3507,-96.0058,2.0,224.9996843,35.00178567,-99999.0,'11111222,11111222,99999999' 
TABS,ioos:station:wmo:42049:1,2011-05-01T14:00:00Z,28.3507,-96.0058,2.0,221.0049106,34.00252491,-99999.0,'11111222,11111222,99999999' 
TABS,ioos:station:wmo:42049:1,2011-05-01T14:30:00Z,28.3507,-96.0058,2.0,212.9915553,33.00156511,-99999.0,'11111222,11111222,99999999' 
TABS,ioos:station:wmo:42049:1,2011-05-01T15:00:00Z,28.3507,-96.0058,2.0,231.0721265,1.002646498,-99999.0,'11133222,11111222,99999999' 
TABS,ioos:station:wmo:42049:1,2011-05-01T15:30:00Z,28.3507,-96.0058,2.0,221.9975514,31.99807025,-99999.0,'11111222,11111222,99999999' 
TABS,ioos:station:wmo:42049:1,2011-05-01T16:00:00Z,28.3507,-96.0058,2.0,218.0003144,29.99984167,-99999.0,'11111222,11111222,99999999' 
TABS,ioos:station:wmo:42049:1,2011-05-01T16:30:00Z,28.3507,-96.0058,2.0,215.9994359,32.00169058,-99999.0,'11111222,11111222,99999999' 
TABS,ioos:station:wmo:42049:1,2011-05-01T17:00:00Z,28.3507,-96.0058,2.0,221.0023346,34.99499536,-99999.0,'11111222,11111222,99999999' 
TABS,ioos:station:wmo:42049:1,2011-05-01T17:30:00Z,28.3507,-96.0058,2.0,221.9996826,29.99414943,-99999.0,'11111222,11111222,99999999' 
TABS,ioos:station:wmo:42049:1,2011-05-01T18:00:00Z,28.3507,-96.0058,2.0,219.0030058,30.99948709,-99999.0,'11111222,11111222,99999999' 
TABS,ioos:station:wmo:42049:1,2011-05-01T18:30:00Z,28.3507,-96.0058,2.0,222.0036321,28.00435145,-99999.0,'11111222,11111222,99999999' 
TABS,ioos:station:wmo:42049:1,2011-05-01T19:00:00Z,28.3507,-96.0058,2.0,217.9960001,28.99560311,-99999.0,'11111222,11111222,99999999' 
TABS,ioos:station:wmo:42049:1,2011-05-01T19:30:00Z,28.3507,-96.0058,2.0,222.0121421,26.99867589,-99999.0,'11111222,11111222,99999999' 
TABS,ioos:station:wmo:42049:1,2011-05-01T20:00:00Z,28.3507,-96.0058,2.0,221.002738,27.99881783,-99999.0,'11111222,11111222,99999999' 
TABS,ioos:station:wmo:42049:1,2011-05-01T20:30:00Z,28.3507,-96.0058,2.0,221.9996826,29.99414943,-99999.0,'11111222,11111222,99999999' 
TABS,ioos:station:wmo:42049:1,2011-05-01T21:00:00Z,28.3507,-96.0058,2.0,218.9958108,29.00196717,-99999.0,'11111222,11111222,99999999' 
TABS,ioos:station:wmo:42049:1,2011-05-01T21:30:00Z,28.3507,-96.0058,2.0,233.007529,29.99806827,-99999.0,'11111222,11111222,99999999' 
TABS,ioos:station:wmo:42049:1,2011-05-01T22:00:00Z,28.3507,-96.0058,2.0,206.9951796,25.00441761,-99999.0,'11111222,11111222,99999999' 
TABS,ioos:station:wmo:42049:1,2011-05-01T22:30:00Z,28.3507,-96.0058,2.0,224.9996843,29.99546966,-99999.0,'11111222,11111222,99999999' 
TABS,ioos:station:wmo:42049:1,2011-05-01T23:00:00Z,28.3507,-96.0058,2.0,219.000904,26.99667572,-99999.0,'11111222,11111222,99999999' 
TABS,ioos:station:wmo:42049:1,2011-05-01T23:30:00Z,28.3507,-96.0058,2.0,241.9974861,23.00295851,-99999.0,'11111222,11111222,99999999' 
TABS,ioos:station:wmo:42049:1,2011-05-02T00:00:00Z,28.3507,-96.0058,2.0,275.0046214,53.9958165,-99999.0,'11111222,11111222,99999999' 
TABS,ioos:station:wmo:42049:1,2011-05-02T00:30:00Z,28.3507,-96.0058,2.0,273.0042794,54.00420169,-99999.0,'11111222,11111222,99999999' 
TABS,ioos:station:wmo:42049:1,2011-05-02T01:00:00Z,28.3507,-96.0058,2.0,270.0004209,51.0,-99999.0,'11111222,11111222,99999999' 
TABS,ioos:station:wmo:42049:1,2011-05-02T01:30:00Z,28.3507,-96.0058,2.0,277.9959499,56.00442572,-99999.0,'11111222,11111222,99999999' 
TABS,ioos:station:wmo:42049:1,2011-05-02T02:00:00Z,28.3507,-96.0058,2.0,275.9983957,48.99823772,-99999.0,'11111222,11111222,99999999' 
TABS,ioos:station:wmo:42049:1,2011-05-02T02:30:00Z,28.3507,-96.0058,2.0,275.0046214,53.9958165,-99999.0,'11111222,11111222,99999999' 
TABS,ioos:station:wmo:42049:1,2011-05-02T03:00:00Z,28.3507,-96.0058,2.0,275.9983957,48.99823772,-99999.0,'11111222,11111222,99999999' 
TABS,ioos:station:wmo:42049:1,2011-05-02T03:30:00Z,28.3507,-96.0058,2.0,276.0031653,48.00320823,-99999.0,'11111222,11111222,99999999' 
TABS,ioos:station:wmo:42049:1,2011-05-02T04:00:00Z,28.3507,-96.0058,2.0,281.0007477,49.00033163,-99999.0,'11111222,11111222,99999999' 
TABS,ioos:station:wmo:42049:1,2011-05-02T04:30:00Z,28.3507,-96.0058,2.0,270.0004209,40.0,-99999.0,'11111222,11111222,99999999' 
TABS,ioos:station:wmo:42049:1,2011-05-02T05:00:00Z,28.3507,-96.0058,2.0,274.9960003,48.00234161,-99999.0,'11111222,11111222,99999999' 
TABS,ioos:station:wmo:42049:1,2011-05-02T05:30:00Z,28.3507,-96.0058,2.0,247.9968241,27.99931606,-99999.0,'11111222,11111222,99999999' 
TABS,ioos:station:wmo:42049:1,2011-05-02T06:00:00Z,28.3507,-96.0058,2.0,262.9950021,35.99868053,-99999.0,'11111222,11111222,99999999' 
TABS,ioos:station:wmo:42049:1,2011-05-02T06:30:00Z,28.3507,-96.0058,2.0,266.0009803,38.00250781,-99999.0,'11111222,11111222,99999999' 
TABS,ioos:station:wmo:42049:1,2011-05-02T07:00:00Z,28.3507,-96.0058,2.0,262.9980904,42.00322011,-99999.0,'11111222,11111222,99999999' 
TABS,ioos:station:wmo:42049:1,2011-05-02T07:30:00Z,28.3507,-96.0058,2.0,333.0036747,38.0008171,-99999.0,'11111222,11111222,99999999' 
TABS,ioos:station:wmo:42049:1,2011-05-02T08:00:00Z,28.3507,-96.0058,2.0,274.9961808,40.99573758,-99999.0,'11111222,11111222,99999999' 
TABS,ioos:station:wmo:42049:1,2011-05-02T08:30:00Z,28.3507,-96.0058,2.0,275.0019686,38.99849356,-99999.0,'11111222,11111222,99999999' 
TABS,ioos:station:wmo:42049:1,2011-05-02T09:00:00Z,28.3507,-96.0058,2.0,275.0046214,35.997211,-99999.0,'11111222,11111222,99999999' 
TABS,ioos:station:wmo:42049:1,2011-05-02T09:30:00Z,28.3507,-96.0058,2.0,268.9923632,32.99509812,-99999.0,'11111222,11111222,99999999' 
TABS,ioos:station:wmo:42049:1,2011-05-02T10:00:00Z,28.3507,-96.0058,2.0,266.9998475,30.00110831,-99999.0,'11111222,11111222,99999999' 
TABS,ioos:station:wmo:42049:1,2011-05-02T10:30:00Z,28.3507,-96.0058,2.0,224.9996843,84.9942351,-99999.0,'11111222,11111222,99999999' 
TABS,ioos:station:wmo:42049:1,2011-05-02T11:00:00Z,28.3507,-96.0058,2.0,270.0004209,25.0,-99999.0,'11111222,11111222,99999999' 
TABS,ioos:station:wmo:42049:1,2011-05-02T11:30:00Z,28.3507,-96.0058,2.0,270.0004209,25.0,-99999.0,'11111222,11111222,99999999' 
TABS,ioos:station:wmo:42049:1,2011-05-02T12:00:00Z,28.3507,-96.0058,2.0,268.9970076,24.00367472,-99999.0,'11111222,11111222,99999999' 
TABS,ioos:station:wmo:42049:1,2011-05-02T12:30:00Z,28.3507,-96.0058,2.0,266.0086753,25.00062399,-99999.0,'11111222,11111222,99999999' 
TABS,ioos:station:wmo:42049:1,2011-05-02T13:00:00Z,28.3507,-96.0058,2.0,266.0092292,23.99817701,-99999.0,'11111222,11111222,99999999' 
TABS,ioos:station:wmo:42049:1,2011-05-02T13:30:00Z,28.3507,-96.0058,2.0,263.9968347,24.00160411,-99999.0,'11111222,11111222,99999999' 
TABS,ioos:station:wmo:42049:1,2011-05-02T14:00:00Z,28.3507,-96.0058,2.0,255.0088314,23.00284548,-99999.0,'11111222,11111222,99999999' 
TABS,ioos:station:wmo:42049:1,2011-05-02T14:30:00Z,28.3507,-96.0058,2.0,243.0108425,26.00170956,-99999.0,'11111222,11111222,99999999' 
TABS,ioos:station:wmo:42049:1,2011-05-02T15:00:00Z,28.3507,-96.0058,2.0,240.0009677,28.00111605,-99999.0,'11111222,11111222,99999999' 
TABS,ioos:station:wmo:42049:1,2011-05-02T15:30:00Z,28.3507,-96.0058,2.0,235.9917715,29.00017241,-99999.0,'11111222,11111222,99999999' 
TABS,ioos:station:wmo:42049:1,2011-05-02T16:00:00Z,28.3507,-96.0058,2.0,227.9969767,32.99631495,-99999.0,'11111222,11111222,99999999' 
TABS,ioos:station:wmo:42049:1,2011-05-02T16:30:00Z,28.3507,-96.0058,2.0,222.002392,32.99631495,-99999.0,'11111222,11111222,99999999' 
TABS,ioos:station:wmo:42049:1,2011-05-02T17:00:00Z,28.3507,-96.0058,2.0,224.9996843,35.00178567,-99999.0,'11111222,11111222,99999999' 
TABS,ioos:station:wmo:42049:1,2011-05-02T17:30:00Z,28.3507,-96.0058,2.0,233.9939225,36.99820806,-99999.0,'11111222,11111222,99999999' 
TABS,ioos:station:wmo:42049:1,2011-05-02T18:00:00Z,28.3507,-96.0058,2.0,222.0065593,39.00064615,-99999.0,'11111222,11111222,99999999' 
TABS,ioos:station:wmo:42049:1,2011-05-02T18:30:00Z,28.3507,-96.0058,2.0,222.0007426,40.006322,-99999.0,'11111222,11111222,99999999' 
TABS,ioos:station:wmo:42049:1,2011-05-02T19:00:00Z,28.3507,-96.0058,2.0,224.0015344,40.99720112,-99999.0,'11111222,11111222,99999999' 
TABS,ioos:station:wmo:42049:1,2011-05-02T19:30:00Z,28.3507,-96.0058,2.0,224.9996843,39.99395954,-99999.0,'11111222,11111222,99999999' 
TABS,ioos:station:wmo:42049:1,2011-05-02T20:00:00Z,28.3507,-96.0058,2.0,224.9996843,46.99431668,-99999.0,'11111222,11111222,99999999' 
TABS,ioos:station:wmo:42049:1,2011-05-02T20:30:00Z,28.3507,-96.0058,2.0,212.9972689,41.99387217,-99999.0,'11111222,11111222,99999999' 
TABS,ioos:station:wmo:42049:1,2011-05-02T21:00:00Z,28.3507,-96.0058,2.0,224.9996843,52.00063269,-99999.0,'11111222,11111222,99999999' 
TABS,ioos:station:wmo:42049:1,2011-05-02T21:30:00Z,28.3507,-96.0058,2.0,230.0008024,51.9935121,-99999.0,'11111222,11111222,99999999' 
TABS,ioos:station:wmo:42049:1,2011-05-02T22:00:00Z,28.3507,-96.0058,2.0,234.0006261,55.00435346,-99999.0,'11111222,11111222,99999999' 
TABS,ioos:station:wmo:42049:1,2011-05-02T22:30:00Z,28.3507,-96.0058,2.0,249.0027911,88.99955168,-99999.0,'11111222,11111222,99999999' 
TABS,ioos:station:wmo:42049:1,2011-05-02T23:00:00Z,28.3507,-96.0058,2.0,233.0016902,50.99812742,-99999.0,'11111222,11111222,99999999' 
TABS,ioos:station:wmo:42049:1,2011-05-02T23:30:00Z,28.3507,-96.0058,2.0,232.9964624,48.99813262,-99999.0,'11111222,11111222,99999999' 
TABS,ioos:station:wmo:42049:1,2011-05-03T00:00:00Z,28.3507,-96.0058,2.0,230.9980742,50.00460479,-99999.0,'11111222,11111222,99999999' 
TABS,ioos:station:wmo:42049:1,2011-05-03T00:30:00Z,28.3507,-96.0058,2.0,229.9974919,49.99869598,-99999.0,'11111222,11111222,99999999' 
TABS,ioos:station:wmo:42049:1,2011-05-03T01:00:00Z,28.3507,-96.0058,2.0,224.9996843,53.00472432,-99999.0,'11111222,11111222,99999999' 
TABS,ioos:station:wmo:42049:1,2011-05-03T01:30:00Z,28.3507,-96.0058,2.0,215.0000729,44.99795218,-99999.0,'11111222,11111222,99999999' 
TABS,ioos:station:wmo:42049:1,2011-05-03T02:00:00Z,28.3507,-96.0058,2.0,224.9996843,53.99467381,-99999.0,'11111222,11111222,99999999' 
TABS,ioos:station:wmo:42049:1,2011-05-03T02:30:00Z,28.3507,-96.0058,2.0,221.9988582,57.00025614,-99999.0,'11111222,11111222,99999999' 
TABS,ioos:station:wmo:42049:1,2011-05-03T03:00:00Z,28.3507,-96.0058,2.0,221.9988582,57.00025614,-99999.0,'11111222,11111222,99999999' 
TABS,ioos:station:wmo:42049:1,2011-05-03T03:30:00Z,28.3507,-96.0058,2.0,221.9988582,57.00025614,-99999.0,'11111222,11111222,99999999' 
TABS,ioos:station:wmo:42049:1,2011-05-03T04:00:00Z,28.3507,-96.0058,2.0,224.9996843,59.00098982,-99999.0,'11111222,11111222,99999999' 
TABS,ioos:station:wmo:42049:1,2011-05-03T04:30:00Z,28.3507,-96.0058,2.0,224.9996843,53.99467381,-99999.0,'11111222,11111222,99999999' 
TABS,ioos:station:wmo:42049:1,2011-05-03T05:00:00Z,28.3507,-96.0058,2.0,224.9996843,67.99538808,-99999.0,'11111222,11111222,99999999' 
TABS,ioos:station:wmo:42049:1,2011-05-03T05:30:00Z,28.3507,-96.0058,2.0,224.9996843,70.99352083,-99999.0,'11111222,11111222,99999999' 
TABS,ioos:station:wmo:42049:1,2011-05-03T06:00:00Z,28.3507,-96.0058,2.0,224.0010069,70.99723445,-99999.0,'11111222,11111222,99999999' 
TABS,ioos:station:wmo:42049:1,2011-05-03T06:30:00Z,28.3507,-96.0058,2.0,224.9996843,70.99352083,-99999.0,'11111222,11111222,99999999' 
TABS,ioos:station:wmo:42049:1,2011-05-03T07:00:00Z,28.3507,-96.0058,2.0,249.001518,70.99459134,-99999.0,'11111222,11111222,99999999' 
TABS,ioos:station:wmo:42049:1,2011-05-03T07:30:00Z,28.3507,-96.0058,2.0,223.997674,73.99589786,-99999.0,'11111222,11111222,99999999' 
TABS,ioos:station:wmo:42049:1,2011-05-03T08:00:00Z,28.3507,-96.0058,2.0,221.9961855,78.00203202,-99999.0,'11111222,11111222,99999999' 
TABS,ioos:station:wmo:42049:1,2011-05-03T08:30:00Z,28.3507,-96.0058,2.0,224.9996843,75.99983684,-99999.0,'11111222,11111222,99999999' 
TABS,ioos:station:wmo:42049:1,2011-05-03T09:00:00Z,28.3507,-96.0058,2.0,224.0012,83.99582668,-99999.0,'11111222,11111222,99999999' 
TABS,ioos:station:wmo:42049:1,2011-05-03T09:30:00Z,28.3507,-96.0058,2.0,224.9996843,85.99832673,-99999.0,'11111222,11111222,99999999' 
TABS,ioos:station:wmo:42049:1,2011-05-03T10:00:00Z,28.3507,-96.0058,2.0,228.0000005,82.00244204,-99999.0,'11111222,11111222,99999999' 
TABS,ioos:station:wmo:42049:1,2011-05-03T10:30:00Z,28.3507,-96.0058,2.0,224.9996843,84.9942351,-99999.0,'11111222,11111222,99999999' 
TABS,ioos:station:wmo:42049:1,2011-05-03T11:00:00Z,28.3507,-96.0058,2.0,227.998098,83.00068674,-99999.0,'11111222,11111222,99999999' 
TABS,ioos:station:wmo:42049:1,2011-05-03T11:30:00Z,28.3507,-96.0058,2.0,224.9996843,85.99832673,-99999.0,'11111222,11111222,99999999' 
TABS,ioos:station:wmo:42049:1,2011-05-03T12:00:00Z,28.3507,-96.0058,2.0,221.9961855,78.00203202,-99999.0,'11111222,11111222,99999999' 
TABS,ioos:station:wmo:42049:1,2011-05-03T12:30:00Z,28.3507,-96.0058,2.0,232.9995505,88.00022727,-99999.0,'11111222,11111222,99999999' 
TABS,ioos:station:wmo:42049:1,2011-05-03T13:00:00Z,28.3507,-96.0058,2.0,244.9978883,79.99603803,-99999.0,'11111222,11111222,99999999' 
TABS,ioos:station:wmo:42049:1,2011-05-03T13:30:00Z,28.3507,-96.0058,2.0,242.9969854,89.00257356,-99999.0,'11111222,11111222,99999999' 
TABS,ioos:station:wmo:42049:1,2011-05-03T14:00:00Z,28.3507,-96.0058,2.0,245.0034277,82.00051768,-99999.0,'11111222,11111222,99999999' 
TABS,ioos:station:wmo:42049:1,2011-05-03T14:30:00Z,28.3507,-96.0058,2.0,224.9996843,70.99352083,-99999.0,'11111222,11111222,99999999' 
TABS,ioos:station:wmo:42049:1,2011-05-03T15:00:00Z,28.3507,-96.0058,2.0,246.0009635,81.9983573,-99999.0,'11111222,11111222,99999999' 
TABS,ioos:station:wmo:42049:1,2011-05-03T15:30:00Z,28.3507,-96.0058,2.0,245.9976468,81.0043363,-99999.0,'11111222,11111222,99999999' 
TABS,ioos:station:wmo:42049:1,2011-05-03T16:00:00Z,28.3507,-96.0058,2.0,245.0018268,77.99639543,-99999.0,'11111222,11111222,99999999' 
TABS,ioos:station:wmo:42049:1,2011-05-03T16:30:00Z,28.3507,-96.0058,2.0,244.9978883,79.99603803,-99999.0,'11111222,11111222,99999999' 
TABS,ioos:station:wmo:42049:1,2011-05-03T17:00:00Z,28.3507,-96.0058,2.0,244.9980787,79.00286134,-99999.0,'11111222,11111222,99999999' 
TABS,ioos:station:wmo:42049:1,2011-05-03T17:30:00Z,28.3507,-96.0058,2.0,243.0011875,80.99717156,-99999.0,'11111222,11111222,99999999' 
TABS,ioos:station:wmo:42049:1,2011-05-03T18:00:00Z,28.3507,-96.0058,2.0,242.9993172,72.9963095,-99999.0,'11111222,11111222,99999999' 
TABS,ioos:station:wmo:42049:1,2011-05-03T18:30:00Z,28.3507,-96.0058,2.0,242.9971079,81.99900304,-99999.0,'11111222,11111222,99999999' 
TABS,ioos:station:wmo:42049:1,2011-05-03T19:00:00Z,28.3507,-96.0058,2.0,246.0011694,75.99969079,-99999.0,'11111222,11111222,99999999' 
TABS,ioos:station:wmo:42049:1,2011-05-03T19:30:00Z,28.3507,-96.0058,2.0,250.9975481,76.99574599,-99999.0,'11111222,11111222,99999999' 
TABS,ioos:station:wmo:42049:1,2011-05-03T20:00:00Z,28.3507,-96.0058,2.0,247.9990698,77.99994103,-99999.0,'11111222,11111222,99999999' 
TABS,ioos:station:wmo:42049:1,2011-05-03T20:30:00Z,28.3507,-96.0058,2.0,248.0008384,76.00369596,-99999.0,'11111222,11111222,99999999' 
TABS,ioos:station:wmo:42049:1,2011-05-03T21:00:00Z,28.3507,-96.0058,2.0,247.9956243,72.99729379,-99999.0,'11111222,11111222,99999999' 
TABS,ioos:station:wmo:42049:1,2011-05-03T21:30:00Z,28.3507,-96.0058,2.0,248.0008384,76.00369596,-99999.0,'11111222,11111222,99999999' 
TABS,ioos:station:wmo:42049:1,2011-05-03T22:00:00Z,28.3507,-96.0058,2.0,250.9975481,76.99574599,-99999.0,'11111222,11111222,99999999' 
TABS,ioos:station:wmo:42049:1,2011-05-03T22:30:00Z,28.3507,-96.0058,2.0,248.9998729,72.99841163,-99999.0,'11111222,11111222,99999999' 
TABS,ioos:station:wmo:42049:1,2011-05-03T23:00:00Z,28.3507,-96.0058,2.0,248.9998729,72.99841163,-99999.0,'11111222,11111222,99999999' 
TABS,ioos:station:wmo:42049:1,2011-05-03T23:30:00Z,28.3507,-96.0058,2.0,251.0020345,75.99952105,-99999.0,'11111222,11111222,99999999' 
TABS,ioos:station:wmo:42049:1,2011-05-04T00:00:00Z,28.3507,-96.0058,2.0,248.9962008,70.00093285,-99999.0,'11111222,11111222,99999999' 
TABS,ioos:station:wmo:42049:1,2011-05-04T00:30:00Z,28.3507,-96.0058,2.0,251.9961765,76.00117433,-99999.0,'11111222,11111222,99999999' 
TABS,ioos:station:wmo:42049:1,2011-05-04T01:00:00Z,28.3507,-96.0058,2.0,254.9987213,67.99722347,-99999.0,'11111222,11111222,99999999' 
TABS,ioos:station:wmo:42049:1,2011-05-04T01:30:00Z,28.3507,-96.0058,2.0,255.0010909,65.99840074,-99999.0,'11111222,11111222,99999999' 
TABS,ioos:station:wmo:42049:1,2011-05-04T02:00:00Z,28.3507,-96.0058,2.0,254.996487,69.99604632,-99999.0,'11111222,11111222,99999999' 
TABS,ioos:station:wmo:42049:1,2011-05-04T02:30:00Z,28.3507,-96.0058,2.0,255.0034708,65.00381912,-99999.0,'11111222,11111222,99999999' 
TABS,ioos:station:wmo:42049:1,2011-05-04T03:00:00Z,28.3507,-96.0058,2.0,251.9978008,64.00316633,-99999.0,'11111222,11111222,99999999' 
TABS,ioos:station:wmo:42049:1,2011-05-04T03:30:00Z,28.3507,-96.0058,2.0,251.0009958,63.00194441,-99999.0,'11111222,11111222,99999999' 
TABS,ioos:station:wmo:42049:1,2011-05-04T04:00:00Z,28.3507,-96.0058,2.0,253.9991336,60.00461649,-99999.0,'11111222,11111222,99999999' 
TABS,ioos:station:wmo:42049:1,2011-05-04T04:30:00Z,28.3507,-96.0058,2.0,250.999658,59.00464558,-99999.0,'11111222,11111222,99999999' 
TABS,ioos:station:wmo:42049:1,2011-05-04T05:00:00Z,28.3507,-96.0058,2.0,251.0023568,57.99896551,-99999.0,'11111222,11111222,99999999' 
TABS,ioos:station:wmo:42049:1,2011-05-04T05:30:00Z,28.3507,-96.0058,2.0,250.9947338,54.99789178,-99999.0,'11111222,11111222,99999999' 
TABS,ioos:station:wmo:42049:1,2011-05-04T06:00:00Z,28.3507,-96.0058,2.0,249.0010074,55.0027872,-99999.0,'11111222,11111222,99999999' 
TABS,ioos:station:wmo:42049:1,2011-05-04T06:30:00Z,28.3507,-96.0058,2.0,245.9980069,54.99522252,-99999.0,'11111222,11111222,99999999' 
TABS,ioos:station:wmo:42049:1,2011-05-04T07:00:00Z,28.3507,-96.0058,2.0,245.0047705,55.00109181,-99999.0,'11111222,11111222,99999999' 
TABS,ioos:station:wmo:42049:1,2011-05-04T07:30:00Z,28.3507,-96.0058,2.0,246.17547478003,51.443677940054,-99999.0,'1111122,1111122,1199999999' 
TABS,ioos:station:wmo:42049:1,2011-05-04T08:00:00Z,28.3507,-96.0058,2.0,248.16779074982,51.816434651566,-99999.0,'1111122,1111122,1199999999' 
TABS,ioos:station:wmo:42049:1,2011-05-04T08:30:00Z,28.3507,-96.0058,2.0,252.18881990205,50.542516755698,-99999.0,'1111122,1111122,1199999999' 
TABS,ioos:station:wmo:42049:1,2011-05-04T09:00:00Z,28.3507,-96.0058,2.0,250.42104787517,47.35822315079,-99999.0,'1111122,1111122,1199999999' 
TABS,ioos:station:wmo:42049:1,2011-05-04T09:30:00Z,28.3507,-96.0058,2.0,249.71474505142,52.005473750366,-99999.0,'1111122,1111122,1199999999' 
TABS,ioos:station:wmo:42049:1,2011-05-04T10:00:00Z,28.3507,-96.0058,2.0,246.1407971233,51.818275733567,-99999.0,'1111122,1111122,1199999999' 
TABS,ioos:station:wmo:42049:1,2011-05-04T10:30:00Z,28.3507,-96.0058,2.0,247.29207467836,53.052370352323,-99999.0,'1111122,1111122,1199999999' 
TABS,ioos:station:wmo:42049:1,2011-05-04T11:00:00Z,28.3507,-96.0058,2.0,248.80060355528,59.206655875839,-99999.0,'1111122,1111122,1199999999' 
TABS,ioos:station:wmo:42049:1,2011-05-04T11:30:00Z,28.3507,-96.0058,2.0,241.25023584945,68.276534768543,-99999.0,'1111122,1111122,1199999999' 
TABS,ioos:station:wmo:42049:1,2011-05-04T12:00:00Z,28.3507,-96.0058,2.0,254.01100906186,59.574667435077,-99999.0,'1111122,1111122,1199999999' 
TABS,ioos:station:wmo:42049:1,2011-05-04T12:30:00Z,28.3507,-96.0058,2.0,245.91503234979,69.347286176173,-99999.0,'1111122,1111122,1199999999' 
TABS,ioos:station:wmo:42049:1,2011-05-04T13:00:00Z,28.3507,-96.0058,2.0,254.25285860028,63.118930599306,-99999.0,'1111122,1111122,1199999999' 
TABS,ioos:station:wmo:42049:1,2011-05-04T13:30:00Z,28.3507,-96.0058,2.0,250.97525029918,65.434153925912,-99999.0,'1111122,1111122,1199999999' 
TABS,ioos:station:wmo:42049:1,2011-05-04T14:00:00Z,28.3507,-96.0058,2.0,251.78010741937,64.030249101499,-99999.0,'1111122,1111122,1199999999' 
TABS,ioos:station:wmo:42049:1,2011-05-04T14:30:00Z,28.3507,-96.0058,2.0,249.99941201486,86.805305137417,-99999.0,'1111122,1111122,1199999999' 
TABS,ioos:station:wmo:42049:1,2011-05-04T15:00:00Z,28.3507,-96.0058,2.0,249.02259782738,88.966552141802,-99999.0,'1111122,1111122,1199999999' 
TABS,ioos:station:wmo:42049:1,2011-05-04T15:30:00Z,28.3507,-96.0058,2.0,250.8918834256,88.284236418514,-99999.0,'1111122,1111122,1199999999' 